Change the Weather History Date:

Tuesday, July 9, 2013

  Actual Average Record
Temperature  
Mean Temperature 80 °F 80 °F  
Max Temperature 89 °F 90 °F 100 °F (1993)
Min Temperature 70 °F 69 °F 55 °F (1896)
Degree Days  
Heating Degree Days 0 0  
Month to date heating degree days 0 0  
Since 1 June heating degree days 0 2  
Since 1 July heating degree days 0 0  
Cooling Degree Days 15 15  
Month to date cooling degree days 108 133  
Year to date cooling degree days 617 685  
Since 1 June cooling degree days 455 484  
Growing Degree Days 30 (Base 50)    
Moisture  
Dew Point 71 °F    
Average Humidity 80    
Maximum Humidity 100    
Minimum Humidity 59    
Precipitation  
Precipitation 2.44 in 0.15 in 3.73 in (1928)
Month to date precipitation 10.10 1.28  
Year to date precipitation 42.69 24.51  
Snow  
Snow 0.00 in 0.00 in 0.00 in ()
Month to date snowfall 0.0 0.0  
Since 1 June snowfall 0.0 0.0  
Since 1 July snowfall 0.0 0.0  
Snow Depth 0.00 in    
Sea Level Pressure  
Sea Level Pressure 30.13 in    
Wind  
Wind Speed 5 mph (SSW)    
Max Wind Speed 23 mph    
Max Gust Speed 31 mph    
Visibility 9 miles    
Events Fog , Rain , Thunderstorm    
T = Trace of Precipitation, MM = Missing Value Source: NWS Daily Summary

Daily Weather History Graph

Daily Weather History Graph

Search for Another Location

Airport or City:

Trip Planner

Search our weather history database for the weather conditions in past years. The results will help you decide how hot, cold, wet, or windy it might be!

Date:

Astronomy

Jul. 09, 2013 Rise Set
Actual Time 6:23 AM EDT 8:45 PM EDT
Civil Twilight 5:53 AM EDT 9:14 PM EDT
Nautical Twilight 5:17 AM EDT 9:50 PM EDT
Astronomical Twilight 4:38 AM EDT 10:29 PM EDT
Moon 7:41 AM EDT (7/9) 9:28 PM EDT (7/9)
Length of Visible Light 15h 20m
Length of Day
14h 21m
New Moon, 2% of the Moon is Illuminated
Jul 9
New Moon
Jul 15
First Quarter
Jul 22
Full
Jul 29
Last Quarter
Aug 6
New

Hourly Weather History & Observations

Time (EDT) Temp. Heat Index Dew Point Humidity Pressure Visibility Wind Dir Wind Speed Gust Speed Precip Events Conditions
12:41 AM 71.6 °F - 71.6 °F 100% 30.20 in 9.0 mi SW 4.6 mph - N/A   Overcast
12:53 AM 72.0 °F - 71.1 °F 97% 30.17 in 9.0 mi SW 4.6 mph - N/A   Overcast
1:04 AM 71.6 °F - 71.6 °F 100% 30.20 in 9.0 mi Calm Calm - N/A   Scattered Clouds
1:18 AM 71.6 °F - 71.6 °F 100% 30.19 in 10.0 mi WSW 3.5 mph - N/A   Mostly Cloudy
1:26 AM 71.6 °F - 71.6 °F 100% 30.19 in 9.0 mi West 4.6 mph - N/A   Partly Cloudy
1:53 AM 71.1 °F - 70.0 °F 96% 30.14 in 10.0 mi Calm Calm - N/A   Partly Cloudy
2:14 AM 71.6 °F - 69.8 °F 94% 30.18 in 10.0 mi SW 3.5 mph - N/A   Mostly Cloudy
2:21 AM 71.6 °F - 69.8 °F 94% 30.18 in 10.0 mi SW 3.5 mph - N/A   Mostly Cloudy
2:33 AM 71.6 °F - 69.8 °F 94% 30.18 in 10.0 mi Calm Calm - N/A   Overcast
2:42 AM 71.6 °F - 69.8 °F 94% 30.18 in 10.0 mi South 3.5 mph - N/A   Mostly Cloudy
2:53 AM 71.1 °F - 70.0 °F 96% 30.14 in 10.0 mi SSW 3.5 mph - N/A   Scattered Clouds
3:53 AM 70.0 °F - 69.1 °F 97% 30.14 in 10.0 mi SW 8.1 mph - N/A   Mostly Cloudy
4:49 AM 69.8 °F - 69.8 °F 100% 30.15 in 10.0 mi Calm Calm - N/A   Scattered Clouds
4:53 AM 70.0 °F - 69.1 °F 97% 30.12 in 10.0 mi Calm Calm - N/A   Mostly Cloudy
5:53 AM 70.0 °F - 69.1 °F 97% 30.12 in 10.0 mi Calm Calm - N/A   Overcast
6:46 AM 71.6 °F - 69.8 °F 94% 30.16 in 10.0 mi South 10.4 mph - N/A   Overcast
6:53 AM 71.1 °F - 70.0 °F 96% 30.13 in 10.0 mi South 9.2 mph - N/A   Overcast
7:01 AM 71.6 °F - 69.8 °F 94% 30.16 in 10.0 mi SSW 8.1 mph - N/A   Mostly Cloudy
7:16 AM 71.6 °F - 69.8 °F 94% 30.16 in 10.0 mi West 3.5 mph - N/A   Scattered Clouds
7:53 AM 73.0 °F - 70.0 °F 90% 30.14 in 10.0 mi West 4.6 mph - N/A   Scattered Clouds
8:53 AM 75.9 °F - 71.1 °F 85% 30.15 in 10.0 mi West 5.8 mph - N/A   Partly Cloudy
9:53 AM 80.1 °F 83.8 °F 72.0 °F 76% 30.15 in 10.0 mi Variable 3.5 mph - N/A   Partly Cloudy
10:07 AM 78.8 °F - 71.6 °F 78% 30.18 in 10.0 mi Variable 6.9 mph - N/A   Mostly Cloudy
10:53 AM 82.0 °F 87.4 °F 73.0 °F 74% 30.15 in 10.0 mi Variable 4.6 mph - N/A   Scattered Clouds
11:53 AM 82.9 °F 88.0 °F 72.0 °F 69% 30.15 in 10.0 mi Variable 6.9 mph - N/A   Mostly Cloudy
12:53 PM 84.0 °F 91.2 °F 73.9 °F 72% 30.14 in 10.0 mi Calm Calm - N/A   Mostly Cloudy
1:53 PM 84.9 °F 91.4 °F 73.0 °F 67% 30.13 in 10.0 mi SW 6.9 mph - N/A   Mostly Cloudy
2:42 PM 87.8 °F 95.6 °F 73.4 °F 62% 30.14 in 10.0 mi SSW 9.2 mph - N/A   Mostly Cloudy
2:51 PM 86.0 °F 93.4 °F 73.4 °F 66% 30.14 in 10.0 mi Variable 4.6 mph - N/A   Scattered Clouds
2:53 PM 84.9 °F 90.7 °F 72.0 °F 65% 30.10 in 10.0 mi Calm Calm - N/A   Mostly Cloudy
3:53 PM 86.0 °F 93.0 °F 73.0 °F 65% 30.08 in 10.0 mi SW 5.8 mph - N/A   Mostly Cloudy
4:53 PM 89.1 °F 97.0 °F 73.0 °F 59% 30.06 in 10.0 mi WSW 6.9 mph - N/A   Scattered Clouds
5:53 PM 87.1 °F 93.6 °F 72.0 °F 61% 30.05 in 10.0 mi South 8.1 mph - N/A   Scattered Clouds
6:53 PM 84.9 °F 90.7 °F 72.0 °F 65% 30.05 in 10.0 mi SW 6.9 mph - N/A   Scattered Clouds
7:53 PM 82.9 °F 88.0 °F 72.0 °F 69% 30.05 in 10.0 mi SW 6.9 mph - N/A   Clear
8:53 PM 80.1 °F 84.5 °F 73.9 °F 81% 30.06 in 10.0 mi South 3.5 mph - N/A Thunderstorm Mostly Cloudy
9:17 PM 75.2 °F - 71.6 °F 89% 30.13 in 2.0 mi WSW 11.5 mph 24.2 mph 0.29 in Rain , Thunderstorm Heavy Thunderstorms and Rain
9:34 PM 71.6 °F - 69.8 °F 94% 30.13 in 0.5 mi South 19.6 mph 31.1 mph 1.83 in Fog , Rain , Thunderstorm Heavy Thunderstorms and Rain
9:53 PM 72.0 °F - 71.1 °F 97% 30.12 in 1.8 mi South 9.2 mph - 2.28 in Rain , Thunderstorm Heavy Thunderstorms and Rain
10:00 PM 73.4 °F - 71.6 °F 94% 30.16 in 2.0 mi South 9.2 mph - 0.06 in Rain , Thunderstorm Heavy Rain
10:13 PM 73.4 °F - 71.6 °F 94% 30.16 in 2.0 mi South 10.4 mph - 0.10 in Rain , Thunderstorm Rain
10:24 PM 73.4 °F - 71.6 °F 94% 30.16 in 2.0 mi South 13.8 mph - 0.13 in Rain , Thunderstorm Light Rain
10:33 PM 73.4 °F - 71.6 °F 94% 30.16 in 6.0 mi South 11.5 mph - 0.13 in Rain , Thunderstorm Light Thunderstorms and Rain
10:49 PM 73.4 °F - 71.6 °F 94% 30.13 in 9.0 mi SSW 11.5 mph - 0.14 in Rain Light Rain
10:53 PM 73.0 °F - 72.0 °F 96% 30.09 in 9.0 mi SSW 10.4 mph - 0.14 in Rain Light Rain
11:44 PM 73.4 °F - 71.6 °F 94% 30.14 in 10.0 mi ESE 5.8 mph - 0.00 in   Mostly Cloudy
11:53 PM 73.0 °F - 71.1 °F 93% 30.12 in 10.0 mi ENE 4.6 mph - 0.00 in   Mostly Cloudy